This is the latest recevied weather packets stored in our database for station/object KD9JJA. If no packets are shown the sender has not sent any weather packets the latest 10 day(s).
| Time | Temp. | Humidity | Pressure | Rain* | Wind** | Luminosity | Snow |
|---|---|---|---|---|---|---|---|
| 1777490239 | 17.22° C | 72% | 1014 hPa | 0 mm | - | 83 W/m² | - |
| 1777489936 | 17.22° C | 73% | 1014.3 hPa | 0 mm | - | 130 W/m² | - |
| 1777489634 | 17.22° C | 71% | 1014.2 hPa | 0 mm | - | 380 W/m² | - |
| 1777489330 | 17.22° C | 70% | 1014 hPa | 0 mm | - | 288 W/m² | - |
| 1777489028 | 17.22° C | 73% | 1014 hPa | 0 mm | - | 198 W/m² | - |
| 1777488724 | 17.22° C | 75% | 1014.1 hPa | 0 mm | - | 517 W/m² | - |
| 1777488422 | 17.22° C | 73% | 1014.1 hPa | 0 mm | - | 399 W/m² | - |
| 1777488120 | 17.22° C | 77% | 1014.1 hPa | 0 mm | - | 164 W/m² | - |
| 1777487818 | 17.22° C | 74% | 1014.1 hPa | 0 mm | - | 409 W/m² | - |
| 1777487516 | 16.67° C | 72% | 1014 hPa | 0 mm | - | 156 W/m² | - |
| 1777487213 | 16.67° C | 74% | 1014 hPa | 0 mm | - | 81 W/m² | - |
| 1777486908 | 16.67° C | 74% | 1014.1 hPa | 0 mm | - | 91 W/m² | - |
| 1777486605 | 16.67° C | 76% | 1014 hPa | 0 mm | - | 118 W/m² | - |
| 1777486303 | 16.67° C | 76% | 1014 hPa | 0 mm | - | 62 W/m² | - |
| 1777486000 | 17.22° C | 75% | 1014 hPa | 0 mm | - | 116 W/m² | - |
| 1777485697 | 16.67° C | 75% | 1013.9 hPa | 0 mm | - | 166 W/m² | - |
| 1777485393 | 16.67° C | 74% | 1014 hPa | 0 mm | - | 93 W/m² | - |
| 1777485088 | 16.67° C | 73% | 1013.8 hPa | 0 mm | - | 114 W/m² | - |
| 1777484786 | 16.67° C | 77% | 1013.9 hPa | 0 mm | - | 85 W/m² | - |
| 1777484482 | 16.67° C | 74% | 1013.9 hPa | 0 mm | - | 110 W/m² | - |
| 1777484180 | 16.67° C | 79% | 1014 hPa | 0 mm | - | 144 W/m² | - |
| 1777483875 | 16.67° C | 76% | 1014.1 hPa | 0 mm | - | 142 W/m² | - |
| 1777483572 | 16.67° C | 76% | 1014.1 hPa | 0 mm | - | 316 W/m² | - |
| 1777483272 | 16.67° C | 77% | 1013.9 hPa | 0 mm | - | 101 W/m² | - |
| 1777482968 | 16.67° C | 76% | 1013.9 hPa | 0 mm | - | 95 W/m² | - |
* Rain latest hour (hover to see other rain measurements)
** Current wind speed in m/s (hover to see current wind gust speed)